Terminal Aerodrome Forecast
Issued by NWS Tampa Bay Area, FL

Home | Current Version | Previous Version | Text Only | Print | Product List | Glossary On
Versions: 1 2 3 4 5 6 7 8 9 10 11 12 13 14 15 16 17
881
FTUS42 KTBW 240719 AAA
TAFSRQ
TAF AMD
KSRQ 240719Z 2407/2506 34004KT P6SM OVC007
     FM241700 35008KT P6SM BKN015
     FM241900 35008KT P6SM SCT020
     FM242300 VRB03KT P6SM SKC=

USA.gov is the U.S. government's official web portal to all federal, state and local government web resources and services.